Track COSMOS 2465 (GLONASS) now! COSMOS 2465 (GLONASS) is classified as:
1 37138U 10041B 25193.09350190 .00000092 00000-0 00000+0 0 9995 2 37138 63.9101 201.8847 0040868 181.2257 5.4772 2.13098323115649